GPS BIIF-12 (PRN 32)

Last updated on Fri Dec 12 2025 00:03:18 GMT+0000 (Coordinated Universal Time)

1 41328U 16007A 25344.89809699 .00000001 00000+0 00000+0 0 9997 2 41328 55.4051 96.9301 0092092 243.5329 115.5097 2.00560768 72065
UTC large
Height (km)
Speed (km/s)
/
Latitude / Longitude
Inclination (degrees)
Orbital Period (minutes)
Azimuth
Elevation
Range (km)
Doppler Factor

Next 0 passes for location: London (51.5072 / 0.1276)

Sorry there are no passes over London.